Tracking 20093 objects as of 14-Dec-2019
HD Live streaming from Space Station
objects crossing your sky now

COSMOS 2251 DEB

Track COSMOS 2251 DEB now!
10-day predictions


NORAD ID: 33984
Int'l Code: 1993-036FT
Perigee: 710.2 km
Apogee: 753.7 km
Inclination: 74.0 °
Period: 99.3 minutes
Semi major axis: 7102 km
RCS: 0.0676 m2 (small)
Launch date: June 16, 1993
Source: Commonwealth of Independent States (former USSR) (CIS)
Launch site: PLESETSK MISSILE AND SPACE COMPLEX (PKMTR)

Note: This is SATELLITE DEBRIS
aabbcc
Your satellite tracking list
Your tracking list is empty




NASA's NSSDC Master Catalog

Two Line Element Set (TLE):
1 33984U 93036FT  19347.81750155  .00000341  00000-0  94426-4 0  9991
2 33984  74.0135 178.2591 0030637 188.6076 182.7770 14.50245313572203
Source of the keplerian elements: AFSPC